Theta_e
321 319 316 313 310 309 308 308 308 308 308 308 309 309 310 310 310 314 316 315 312 310 313 313 313 314 315 312 313 312 315 315 314 313 317 328 327 326 326 331 331 331 331 332 334
323 322 320 319 316 312 309 308 308 308 308 308 309 309 310 310 311 316 316 316 315 312 313 314 313 314 315 315 312 313 314 315 313 312 323 327 325 325 327 331 331 331 330 332 335
320 322 323 321 319 318 313 310 308 308 308 308 309 309 310 310 310 317 317 316 316 314 313 312 312 313 314 314 312 310 315 313 313 312 324 326 326 325 326 328 330 331 331 331 334
316 318 321 322 321 319 318 314 310 307 308 308 308 309 310 310 311 319 317 317 316 315 313 312 312 315 315 316 313 313 311 311 314 321 325 326 324 325 325 325 327 331 330 330 333
316 316 317 316 322 321 320 318 313 309 307 307 308 309 310 310 310 311 314 317 315 315 313 314 315 316 317 315 313 312 316 321 320 324 324 323 322 323 330 330 330 330 330 330 330
312 314 315 318 315 321 321 320 318 312 307 307 307 309 310 308 310 311 314 316 316 314 314 314 316 316 316 315 316 321 321 322 322 323 323 322 322 322 328 330 330 330 332 330 328
302 310 312 315 319 316 321 320 319 316 309 307 307 308 310 311 310 312 315 318 318 318 317 317 316 317 317 317 322 320 323 321 322 324 323 321 323 323 326 330 330 331 329 328 328
298 300 308 311 318 316 318 319 319 318 312 307 307 309 310 311 310 312 316 317 317 319 319 318 318 317 317 317 314 321 317 321 321 322 321 322 325 323 328 330 330 329 329 328 327
298 298 301 311 316 316 314 316 318 319 313 307 309 310 310 311 311 310 314 314 317 318 317 316 316 317 316 318 317 316 319 319 318 321 321 322 322 326 329 330 330 329 329 329 327
298 298 299 309 314 315 316 317 316 317 309 310 313 312 311 313 315 316 314 314 317 317 318 317 317 318 316 318 320 319 318 318 319 319 322 322 322 328 329 329 330 329 329 328 328
299 298 298 306 312 316 317 315 314 310 315 312 313 313 311 313 315 316 316 316 316 317 319 317 319 321 319 316 316 317 319 319 319 319 319 320 319 320 330 330 330 329 328 328 328
306 299 298 304 311 315 315 317 311 311 313 311 312 315 315 316 317 317 316 316 315 316 317 319 321 319 316 316 319 320 320 321 319 318 318 319 320 318 327 330 330 330 330 329 329
307 303 301 307 313 314 314 317 316 310 315 316 312 311 312 313 314 316 316 315 315 315 318 319 319 317 318 320 320 320 320 319 319 318 317 317 318 319 318 325 328 330 329 329 328
306 305 305 310 310 313 312 315 311 316 314 311 313 314 312 313 314 314 317 316 314 317 316 317 315 317 319 320 319 320 318 319 319 320 321 315 319 317 318 320 323 326 329 329 328
305 306 304 309 314 313 313 313 315 315 311 310 317 316 315 314 314 316 317 316 316 315 317 317 318 318 319 319 318 320 318 319 320 321 319 318 320 320 316 318 320 322 326 329 329
304 305 304 308 312 313 315 314 314 316 316 312 317 317 317 316 314 315 316 315 315 317 317 315 316 317 319 317 317 317 320 317 317 319 324 320 320 321 319 319 320 320 321 324 327
303 305 304 307 310 312 314 316 320 320 313 313 319 316 315 314 313 313 315 316 318 319 320 317 318 317 317 319 317 318 318 321 322 323 324 318 319 321 319 318 318 319 320 321 323
302 304 304 305 311 313 314 315 319 316 315 316 315 316 315 312 313 313 314 316 313 315 315 318 318 318 317 319 320 319 319 324 320 321 321 317 322 321 318 317 318 319 318 317 321
302 303 304 304 309 311 313 317 316 316 315 315 313 318 316 312 313 314 314 316 315 314 318 317 317 316 318 318 319 320 320 317 319 317 322 319 318 317 316 317 319 320 319 318 317
301 302 304 303 307 310 313 315 317 314 317 318 318 315 318 314 314 315 314 313 314 313 315 317 317 318 319 319 317 319 318 322 319 322 321 318 317 318 319 318 318 319 319 320 321
301 302 303 303 305 309 314 312 315 315 316 318 320 320 314 313 314 314 315 313 314 313 313 315 316 316 319 320 321 320 321 317 318 318 322 321 320 317 318 317 319 319 319 320 320
301 302 303 303 306 308 311 313 313 314 315 315 316 318 318 313 315 315 316 315 313 313 315 316 317 318 319 316 316 318 320 319 324 320 317 318 320 316 316 314 313 318 318 321 321
301 302 303 302 307 308 310 312 312 313 315 315 315 316 318 316 314 315 314 314 312 314 316 316 316 317 316 317 318 320 317 316 315 316 319 324 321 314 314 315 314 314 316 318 321
301 303 305 304 304 307 309 312 314 312 314 314 314 315 318 318 316 315 315 315 312 313 314 315 316 317 318 317 318 320 319 317 319 320 321 319 320 318 318 316 316 315 315 316 318
301 303 305 306 304 306 308 310 312 313 313 313 314 315 317 318 317 316 316 319 316 315 314 318 318 315 315 313 316 318 319 317 318 320 321 321 316 318 317 316 314 312 313 314 315
301 302 303 308 305 305 308 311 312 312 313 313 314 314 314 317 316 319 318 319 318 315 316 314 318 315 316 315 314 317 316 316 317 316 316 315 316 315 313 312 312 312 313 317 318
300 302 303 306 306 306 307 309 312 312 312 312 313 314 314 315 314 314 316 316 317 318 316 316 316 317 319 314 315 317 317 316 316 315 317 318 318 312 312 312 312 313 316 317 317
Wind_Speed
18 18 17 16 16 17 17 16 17 17 18 20 20 22 23 24 19 8 2 4 3 8 8 5 4 5 3 5 3 2 1 3 4 3 4 1 2 3 2 5 3 1 7 11 16
21 19 18 17 17 17 17 17 18 18 19 19 20 21 22 23 19 2 0 3 2 6 6 6 5 7 4 5 5 3 3 6 6 4 2 1 2 4 4 4 3 3 5 16 16
21 21 20 19 19 18 18 18 18 19 19 20 20 21 21 21 13 5 2 2 1 6 5 5 7 6 3 4 5 4 5 4 6 11 3 3 2 2 2 5 9 12 17 18 18
23 23 22 20 20 19 18 18 19 19 20 20 21 21 20 17 2 4 3 2 2 7 6 7 7 5 2 3 5 3 9 7 5 3 4 4 3 0 4 2 4 10 14 17 17
26 25 23 22 21 19 19 19 19 19 20 20 20 21 20 11 11 10 5 1 4 6 6 7 5 3 2 3 2 3 3 5 4 5 4 3 3 2 3 5 9 13 15 14 14
27 26 26 23 23 21 20 19 19 20 21 20 20 20 18 7 5 7 8 5 5 6 7 5 1 1 1 2 1 3 1 4 6 3 2 1 2 1 2 6 13 14 15 13 13
25 27 26 24 22 22 21 19 19 20 21 20 21 20 21 20 8 10 13 8 4 4 4 2 2 3 3 1 3 1 1 3 2 3 1 2 4 4 4 11 13 11 11 13 14
22 21 24 24 22 23 22 19 19 21 22 21 20 18 13 14 11 14 14 11 7 5 3 5 4 5 2 1 3 2 2 2 1 3 2 4 5 3 10 15 13 11 10 12 18
22 20 21 21 22 21 22 19 19 22 22 20 16 10 12 8 8 12 16 12 8 5 4 7 4 2 2 3 2 4 1 1 3 5 3 3 5 2 12 13 12 12 12 14 18
22 20 18 19 19 19 19 17 17 21 20 14 14 6 13 4 5 9 13 13 9 5 3 4 3 1 2 2 2 4 2 3 5 2 5 6 10 4 13 14 12 12 14 19 21
21 20 18 16 16 14 17 12 9 7 9 12 4 6 3 5 6 8 12 14 10 5 3 1 2 4 7 5 2 2 3 3 3 5 4 5 9 10 15 14 12 15 18 20 25
19 18 17 13 10 14 13 9 6 5 11 20 25 31 28 21 7 8 11 11 8 5 4 1 5 4 2 4 2 2 4 4 2 3 3 6 9 5 16 20 21 19 19 21 21
19 16 13 11 10 13 14 13 11 8 6 13 23 20 26 21 14 14 15 10 4 5 6 5 2 5 5 3 4 4 4 3 5 3 2 4 4 3 7 12 13 19 20 19 23
19 17 11 10 10 13 15 8 8 8 3 6 6 8 17 13 7 25 18 12 2 9 8 4 2 4 3 4 6 5 6 6 3 1 1 2 3 3 5 10 13 23 22 26 27
20 18 14 16 6 6 3 4 3 7 4 3 4 5 11 17 12 18 22 9 8 6 6 5 4 4 3 5 6 5 2 2 1 3 2 1 1 4 0 8 17 24 29 30 34
23 20 17 19 23 14 11 4 6 2 9 2 7 7 7 7 4 11 11 7 7 5 0 3 1 3 6 3 4 5 4 5 3 1 1 0 2 4 4 4 4 14 25 32 34
25 23 22 21 19 19 16 7 3 7 5 4 5 6 4 6 5 5 11 7 8 6 5 0 2 2 3 3 2 3 4 1 1 1 2 3 1 8 4 7 6 10 15 29 37
27 25 25 27 17 17 12 3 12 6 6 4 2 5 7 5 4 4 10 12 3 5 4 6 3 7 4 4 5 5 4 4 3 2 1 2 4 3 5 11 12 12 13 13 25
27 29 28 32 30 19 10 8 7 6 4 4 2 4 4 4 5 4 7 14 10 8 8 6 5 1 4 4 3 4 3 2 6 2 1 2 4 8 2 6 6 9 10 7 14
29 32 32 33 30 23 8 21 7 6 0 1 5 5 10 7 6 8 9 7 8 8 6 7 2 2 1 2 4 2 8 3 1 3 3 3 3 3 6 6 4 4 6 6 5
27 19 20 33 30 18 13 19 15 8 2 0 2 3 5 7 7 6 9 1 13 9 5 5 3 2 2 4 8 3 2 3 3 2 3 2 4 6 5 2 5 4 3 3 4
27 10 20 33 19 16 18 18 17 24 3 1 2 3 4 6 5 7 10 5 17 17 10 7 4 4 6 1 2 2 6 6 3 4 1 1 6 5 8 5 7 12 8 4 3
16 22 27 45 14 15 17 22 17 14 11 6 3 4 2 3 4 5 6 5 18 9 12 8 1 3 1 1 2 2 4 4 5 3 7 5 5 2 4 6 7 11 10 9 6
17 7 14 32 37 23 21 19 21 24 10 5 3 1 2 3 4 5 6 3 16 9 15 15 4 6 9 8 5 4 6 7 6 4 5 7 10 8 8 5 11 10 10 10 11
21 6 13 12 22 20 21 20 27 16 23 17 3 10 2 3 2 3 2 2 3 6 5 5 7 6 5 5 5 6 5 12 11 10 8 11 11 10 7 5 6 9 9 11 10
16 6 20 8 36 23 18 22 27 23 12 18 15 9 15 4 4 4 6 1 1 0 4 2 4 5 4 3 6 5 6 8 9 5 9 8 8 10 6 5 4 4 1 1 2
34 33 22 24 20 18 21 23 17 20 21 7 15 2 5 20 5 6 3 6 4 2 4 5 6 4 5 1 5 4 7 9 5 6 6 9 10 3 5 4 3 2 7 9 11
Wind_Direction
296 301 306 310 314 317 319 320 317 315 314 319 323 325 328 329 333 328 24 34 87 162 155 165 167 156 144 151 162 136 64 263 256 219 273 170 134 146 141 130 104 273 176 176 173
288 292 297 302 308 314 317 319 318 315 314 317 320 326 327 330 332 223 142 35 120 153 167 182 166 159 158 161 179 163 196 226 207 204 246 208 184 159 182 131 103 84 158 159 165
275 280 289 296 300 307 312 316 318 315 315 316 320 324 328 331 330 194 200 342 285 199 188 181 184 179 144 179 194 181 230 242 252 233 247 154 227 183 146 213 198 190 170 169 169
271 273 274 287 294 298 306 310 315 316 315 315 320 323 327 331 321 208 238 301 227 184 187 187 182 159 131 217 187 229 251 255 303 224 144 186 168 224 213 286 304 170 171 171 169
266 268 273 273 285 291 298 304 311 314 313 314 317 321 328 309 278 236 239 218 144 162 180 171 171 153 189 228 197 213 294 317 328 115 88 126 35 327 312 347 147 153 163 175 166
263 264 267 272 271 282 290 297 306 309 309 311 312 316 318 292 255 220 204 172 133 164 177 178 145 4 216 261 232 168 86 54 51 85 101 122 28 2 247 135 132 156 168 174 173
268 265 265 264 276 274 279 290 299 303 303 305 305 308 301 279 246 218 202 196 179 171 155 168 229 352 321 305 154 83 325 79 82 178 160 112 264 233 203 167 153 167 175 164 156
272 271 263 263 268 272 273 283 296 298 299 299 297 296 272 276 247 215 209 213 221 196 227 261 239 295 200 127 26 10 43 19 268 187 57 205 287 145 180 181 165 174 173 180 172
269 274 270 262 267 275 276 281 293 297 295 293 287 275 265 262 237 216 217 226 214 201 263 229 209 214 152 108 46 21 307 299 284 203 121 254 294 148 191 198 188 184 181 189 183
264 268 272 265 268 277 285 285 292 295 283 281 257 269 252 229 191 199 211 212 201 183 123 155 168 162 93 149 188 199 208 238 317 163 196 226 260 186 197 200 217 200 191 192 196
261 265 266 263 268 283 288 306 304 274 264 225 240 223 254 227 252 226 204 199 190 173 172 151 175 219 215 200 121 181 196 262 273 162 248 229 275 222 197 208 216 212 206 202 208
267 261 261 254 246 272 282 281 286 297 299 268 256 253 251 260 300 213 190 175 168 173 130 64 233 207 182 176 167 168 221 240 301 301 320 324 305 234 191 210 208 214 210 212 206
267 263 254 239 234 263 275 268 276 276 275 280 247 242 241 234 230 231 188 189 147 143 172 185 243 149 167 168 193 227 219 209 264 344 308 307 277 200 209 237 223 225 228 222 215
255 260 240 218 239 256 265 280 236 255 282 263 227 241 197 190 226 222 199 178 139 185 157 231 225 191 183 206 175 254 220 209 215 325 271 315 301 274 217 217 222 234 221 226 221
245 250 227 199 211 193 201 183 243 147 296 196 176 164 180 179 153 195 196 192 158 161 146 228 182 177 179 213 167 230 150 165 163 187 253 145 227 277 178 233 227 224 225 225 224
235 237 220 210 212 185 168 34 164 204 240 250 143 170 151 224 179 143 157 186 153 122 70 214 178 195 189 180 172 137 82 44 61 112 333 230 234 274 233 237 271 230 227 228 226
227 227 222 205 219 212 226 276 199 223 328 193 182 162 185 175 170 145 168 167 170 150 182 324 215 253 185 143 130 115 105 223 116 128 202 129 170 253 260 252 250 281 251 235 230
224 219 221 212 184 203 211 169 220 185 255 318 145 122 181 153 218 141 145 183 215 123 140 186 243 183 187 191 185 175 195 156 179 189 238 198 230 243 219 293 288 299 299 257 243
220 222 222 214 192 187 190 214 214 191 191 265 105 134 223 214 166 150 177 196 181 168 171 157 240 189 250 143 169 161 181 123 106 37 166 260 276 274 251 307 304 315 317 298 248
213 227 230 214 194 197 211 223 224 198 106 247 235 186 179 193 165 175 174 185 191 185 154 195 164 194 203 143 53 181 147 131 66 179 239 245 264 239 311 336 315 333 329 304 289
207 222 228 212 194 202 219 210 212 245 116 164 299 286 202 174 183 192 190 232 181 176 125 137 139 196 136 215 172 147 177 71 118 166 206 255 248 215 239 234 286 289 293 293 275
195 217 189 188 190 205 218 209 215 230 205 319 230 252 237 184 161 188 199 237 182 148 171 190 144 176 195 316 254 175 170 156 156 198 211 271 255 235 252 252 274 280 287 262 208
190 206 183 179 191 208 206 216 205 225 225 196 242 209 301 247 197 188 196 224 166 154 163 174 171 163 358 19 2 212 192 136 108 90 199 205 256 178 268 301 267 269 287 275 260
179 178 180 195 209 207 191 203 207 212 223 183 220 221 293 296 227 210 199 196 190 186 189 148 143 169 219 224 163 192 199 186 162 161 189 223 255 263 275 273 287 284 291 291 262
186 210 181 194 208 208 199 199 200 203 213 198 240 215 230 252 303 174 148 124 137 178 144 143 185 181 227 219 193 202 182 179 199 220 202 247 221 250 251 239 279 295 299 291 285
178 193 194 191 207 210 203 207 197 195 179 209 216 196 208 247 188 112 32 118 93 8 160 183 194 155 209 119 196 212 231 192 217 223 244 252 252 235 221 228 248 288 238 99 31
197 200 203 204 189 198 209 200 195 183 218 203 197 219 189 227 271 323 287 287 259 187 172 164 137 130 225 175 137 309 214 187 190 206 197 216 233 168 229 209 171 111 129 117 103